Dewpoint
71 71 72 64 55 58 51 48 48 49 51 52 54 56 58 59 56 55 65 67 69 70 72 73 75 75 74 74 75 74 74 73 75 75 75 75 74 73 75 75 76 75 75 74 76 75 75 75 75
66 68 69 62 55 52 49 47 47 51 52 52 55 57 58 59 61 62 64 66 68 69 70 72 75 75 74 73 74 74 74 73 75 75 75 75 75 75 75 75 75 75 75 75 75 75 75 75 74
61 66 62 57 54 51 47 46 48 51 51 51 52 58 58 59 62 63 63 64 66 68 70 71 74 74 73 73 71 73 74 75 75 75 75 75 74 75 75 75 75 75 75 75 75 74 73 73 72
67 66 62 54 51 52 53 45 48 51 51 51 54 57 60 62 62 64 64 66 67 68 70 73 74 73 73 73 73 74 75 75 75 75 75 75 74 74 74 74 75 75 75 75 75 74 73 71 71
67 65 56 55 53 54 55 48 46 51 51 54 57 57 58 62 64 64 64 65 65 67 70 71 75 73 73 72 74 74 74 75 74 75 75 75 75 75 75 75 75 75 75 75 74 73 73 72 72
62 64 55 52 55 55 55 49 48 51 52 53 58 58 58 62 63 64 64 64 65 66 68 68 72 73 73 73 73 74 74 74 74 74 75 75 75 75 75 75 75 75 75 74 74 74 73 72 72
61 59 56 55 54 55 56 59 48 51 51 51 53 56 58 61 63 63 62 62 65 65 66 67 68 71 73 73 73 73 74 74 74 74 75 75 75 75 74 74 74 74 74 74 75 74 73 73 73
64 59 53 56 55 54 58 60 51 50 52 52 53 51 55 60 61 61 60 61 63 63 64 65 67 70 71 72 74 73 73 74 73 73 74 74 75 75 74 76 76 74 74 74 75 75 74 75 74
67 55 52 54 52 55 60 60 57 51 50 51 52 52 55 59 60 59 58 61 62 63 67 70 70 70 70 70 72 72 72 71 70 72 72 75 74 73 73 74 75 74 74 73 73 73 74 74 75
61 57 56 55 55 58 61 60 60 57 51 51 51 52 54 58 59 58 58 59 61 63 67 69 69 68 68 69 71 71 71 71 69 70 71 74 73 72 72 74 75 74 74 74 73 73 73 72 71
59 57 58 56 57 60 59 57 62 59 50 51 51 51 51 53 58 58 58 60 62 65 67 70 69 69 69 69 70 72 72 71 70 70 72 72 71 72 72 73 72 72 74 71 72 72 72 71 66
55 55 54 57 58 57 56 59 60 59 56 54 53 52 52 52 58 58 59 62 64 65 68 69 66 70 69 70 70 70 71 71 71 71 71 71 70 69 69 71 71 71 70 70 69 71 69 71 67
57 61 55 56 56 59 59 57 59 56 56 55 52 52 52 52 53 57 58 63 65 65 67 67 68 69 68 69 69 69 69 71 69 70 72 71 70 67 68 68 70 70 69 70 70 68 68 70 66
53 56 55 57 58 59 57 60 58 58 60 58 52 52 52 53 52 53 59 62 65 67 68 67 68 67 68 66 67 67 69 70 70 70 71 70 71 70 69 70 69 69 68 68 67 68 67 67 67
56 53 54 57 56 56 58 57 57 61 58 56 51 52 52 53 53 54 59 60 62 64 68 67 67 67 67 66 68 68 68 69 70 70 73 71 69 70 70 69 70 71 68 69 67 66 67 67 64
57 56 52 59 58 57 57 53 59 61 57 57 57 53 53 54 54 54 54 57 63 63 66 68 67 66 66 67 69 70 71 70 69 70 69 68 67 69 67 68 70 70 70 69 68 67 67 66 63
54 49 49 54 59 56 53 52 58 58 56 57 58 55 54 55 54 54 55 57 63 63 64 65 68 66 65 65 69 70 70 70 69 64 67 64 69 69 67 64 66 67 69 69 68 67 67 65 63
51 49 48 51 58 57 51 51 57 53 57 57 58 56 55 54 55 56 55 59 62 62 64 64 66 67 66 68 70 67 67 67 71 68 66 68 70 68 69 67 67 66 71 67 64 62 65 67 65
48 46 46 50 53 53 52 52 53 56 55 57 59 57 54 53 55 57 56 59 62 64 64 65 66 66 70 70 69 67 67 69 69 69 69 71 66 66 65 64 66 68 71 69 64 66 69 69 66
44 45 46 50 53 56 55 56 57 55 56 57 60 57 57 55 58 57 58 61 62 64 66 67 67 69 68 69 69 68 69 68 68 69 69 71 65 66 67 68 71 72 71 68 71 72 69 69 67
44 43 44 44 52 56 54 54 56 55 54 56 58 56 57 56 56 60 61 60 62 64 67 66 68 69 69 67 70 69 68 67 70 72 69 70 69 70 69 68 72 71 71 69 69 71 70 66 62
26 39 42 39 44 44 52 47 52 55 53 52 57 53 55 58 58 62 62 62 61 64 67 69 70 70 69 70 68 67 64 65 68 69 69 70 70 70 70 71 70 70 72 69 68 72 66 62 62
19 23 33 35 33 29 46 45 50 53 50 52 56 56 54 57 58 59 59 62 66 66 69 69 71 71 69 69 70 69 66 68 68 69 69 70 71 71 72 71 71 72 72 72 71 71 72 71 68
15 15 25 34 32 27 30 41 47 50 51 56 57 56 56 57 57 60 60 62 67 70 70 68 67 69 70 70 71 70 66 67 68 68 69 69 70 71 70 71 72 72 72 71 69 72 72 72 71
12 8 18 22 25 34 40 42 47 50 52 56 54 56 56 57 58 61 58 60 67 68 67 66 69 69 69 70 70 69 70 69 67 68 68 69 69 70 69 71 72 72 73 71 70 71 71 71 72
10 6 12 18 35 36 40 44 48 48 53 53 51 50 58 61 63 63 60 62 66 67 66 64 67 69 69 69 70 70 69 70 69 71 68 68 68 69 69 72 72 73 73 72 73 70 70 70 71
13 10 7 9 42 39 42 43 45 50 52 54 53 56 56 58 60 61 60 62 65 66 66 67 68 70 70 69 70 71 69 70 69 68 71 67 70 70 70 71 73 72 72 70 70 72 71 71 69
12 17 16 14 30 33 40 42 40 44 51 53 49 51 55 58 59 60 60 61 65 65 66 67 63 65 69 69 70 71 70 71 70 71 71 69 70 70 71 72 71 72 72 72 72 71 71 70 71
13 17 26 24 24 31 37 41 46 48 52 51 50 52 53 55 55 58 60 62 62 63 66 66 68 67 71 71 70 69 71 70 70 71 70 71 71 69 70 70 70 69 70 71 69 71 70 70 68
17 16 22 26 24 28 33 39 47 46 47 47 47 49 53 55 56 57 58 62 64 64 68 68 69 68 70 69 71 69 69 69 70 69 70 71 71 70 69 69 67 64 63 70 70 69 69 69 68
Lifted_Index
-2 -3 -2 -0 -0 -1 -1 -1 -1 -1 -1 -1 -1 -1 -1 -2 -1 -1 -1 -2 -2 -3 -3 -4 -4 -4 -3 -3 -3 -3 -3 -4 -4 -5 -4 -4 -4 -4 -4 -4 -5 -5 -5 -5 -5 -5 -5 -5 -5
-2 -2 -2 -1 -0 -1 -1 -1 -1 -1 -1 -0 -1 -1 -1 -1 -1 -1 -1 -1 -2 -2 -3 -3 -4 -4 -3 -3 -3 -3 -3 -4 -4 -5 -4 -4 -4 -4 -4 -4 -5 -5 -5 -5 -5 -5 -5 -5 -5
-2 -2 -2 -0 -1 -1 -1 -1 -1 -1 -1 -0 -0 -1 -1 -1 -1 -1 -0 -1 -1 -2 -2 -3 -3 -3 -3 -2 -2 -3 -3 -4 -4 -4 -4 -4 -4 -4 -4 -4 -5 -5 -5 -5 -5 -5 -4 -4 -4
-3 -2 -1 -0 -1 -1 -2 -1 -1 -1 -0 -0 -0 -1 -1 -1 -1 -1 -0 -0 -1 -1 -2 -3 -3 -3 -2 -2 -2 -3 -4 -4 -4 -4 -4 -4 -4 -4 -4 -4 -5 -5 -5 -5 -5 -4 -4 -4 -4
-3 -2 -1 -0 -1 -1 -2 -2 -1 -1 -0 -0 -1 -1 -1 -1 -1 -1 -0 -0 -1 -1 -2 -2 -3 -2 -2 -2 -3 -3 -3 -4 -4 -4 -4 -4 -4 -4 -4 -4 -5 -5 -5 -5 -5 -5 -4 -5 -5
-3 -2 -1 -0 -0 -1 -2 -2 -1 -0 0 -0 -1 -1 -1 -1 -1 -1 -0 -0 -0 -1 -1 -1 -2 -2 -2 -2 -3 -3 -3 -3 -4 -4 -4 -4 -5 -4 -4 -4 -5 -5 -5 -5 -5 -5 -5 -5 -5
-2 -1 -0 -0 -0 -1 -1 -2 -1 -0 0 0 0 -0 -1 -1 -1 -0 0 0 -0 0 0 -0 -1 -1 -2 -2 -2 -2 -3 -3 -3 -4 -4 -4 -5 -5 -4 -5 -5 -5 -5 -5 -5 -5 -5 -5 -5
-1 -0 0 0 0 -0 -1 -2 -1 -0 1 1 1 1 -0 -1 -0 0 1 1 1 1 1 0 -0 -1 -1 -2 -2 -2 -2 -2 -3 -3 -3 -4 -5 -5 -5 -5 -5 -5 -5 -5 -5 -5 -6 -6 -6
-1 0 0 -0 -0 -1 -2 -2 -1 -0 0 1 1 1 1 -0 0 1 1 1 1 1 1 0 0 -0 -0 -1 -1 -1 -1 -1 -1 -2 -3 -3 -4 -4 -5 -5 -5 -5 -5 -5 -5 -5 -6 -6 -6
-1 -0 -1 -1 -1 -2 -2 -2 -1 -1 -0 0 0 1 1 0 0 0 1 1 1 1 1 0 0 0 1 0 0 0 0 1 1 -0 -2 -3 -3 -4 -5 -5 -5 -5 -5 -5 -5 -5 -5 -5 -5
-2 -1 -2 -2 -2 -2 -1 -1 -1 -1 -0 0 1 1 1 1 0 0 0 0 1 1 0 0 0 1 1 1 1 0 0 0 0 -0 -1 -2 -3 -4 -4 -4 -4 -5 -4 -4 -4 -4 -4 -4 -3
-2 -2 -2 -2 -2 -1 -1 -0 -1 -1 -0 0 1 1 1 1 0 0 0 -0 -0 0 -0 -0 0 1 1 1 1 0 -0 -0 -0 -1 -1 -2 -3 -3 -3 -3 -4 -4 -4 -4 -4 -3 -4 -4 -3
-3 -2 -2 -2 -2 -2 -1 -1 -1 -1 -1 -0 0 1 1 1 1 1 0 -1 -1 -1 -1 -0 0 1 1 1 1 1 0 -0 -1 -2 -2 -2 -3 -3 -2 -3 -3 -3 -3 -3 -4 -3 -4 -4 -3
-2 -2 -2 -2 -2 -2 -2 -2 -1 -1 -1 -1 0 1 1 1 1 1 0 -1 -1 -1 -1 -1 -0 1 1 1 1 1 0 -0 -1 -2 -3 -3 -3 -2 -2 -2 -2 -3 -4 -4 -4 -3 -3 -3 -3
-1 -1 -1 -2 -2 -2 -2 -2 -1 -1 -1 -1 -0 0 0 0 1 1 0 -1 -1 -1 -1 -1 -1 -0 1 1 1 0 -0 -1 -2 -2 -2 -2 -2 -2 -2 -2 -2 -3 -4 -4 -4 -3 -3 -3 -3
-1 -1 -1 -2 -2 -2 -1 -1 -1 -1 -1 -1 -0 -0 -0 0 1 1 0 -0 -1 -1 -1 -2 -2 -1 -1 -0 -1 -1 -1 -1 -2 -2 -2 -1 -2 -1 -1 -1 -2 -3 -3 -3 -3 -3 -3 -3 -2
-1 -1 -1 -2 -2 -2 -1 -0 -0 -0 -1 -1 -1 -0 -0 -0 0 0 0 -0 -1 -1 -1 -2 -2 -2 -1 -1 -1 -1 -1 -1 -2 -2 -1 -1 -1 -1 -1 -0 -1 -2 -3 -3 -3 -3 -3 -2 -2
-1 -1 -1 -1 -2 -2 -1 -0 -0 -0 -1 -1 -1 -1 -0 -0 -0 -0 -0 -1 -1 -1 -1 -2 -2 -2 -2 -2 -2 -2 -2 -2 -2 -2 -1 -1 -1 -1 0 0 -1 -2 -3 -3 -3 -3 -3 -3 -2
-2 -1 -1 -1 -1 -2 -1 -1 -1 -0 -1 -1 -2 -1 -1 -1 -1 -1 -1 -1 -2 -2 -2 -2 -2 -3 -3 -3 -3 -2 -2 -2 -3 -2 -2 -2 -2 -1 0 0 -1 -3 -3 -3 -3 -4 -4 -3 -3
-2 -1 -1 -1 -1 -1 -2 -2 -2 -1 -1 -1 -2 -1 -1 -1 -1 -1 -1 -1 -2 -2 -2 -2 -3 -3 -3 -3 -3 -3 -3 -3 -3 -3 -3 -4 -3 -2 -2 -2 -2 -4 -4 -4 -4 -4 -4 -3 -3
-1 -1 -2 -2 -2 -2 -2 -2 -2 -2 -1 -1 -2 -1 -1 -2 -2 -2 -1 -2 -2 -2 -3 -2 -3 -3 -3 -3 -4 -4 -3 -3 -4 -4 -4 -4 -4 -4 -3 -3 -4 -4 -4 -4 -4 -4 -4 -3 -2
0 -1 -2 -1 -2 -2 -3 -2 -2 -1 -1 -1 -1 -1 -1 -2 -2 -2 -1 -1 -2 -2 -3 -3 -3 -3 -3 -3 -4 -3 -3 -3 -4 -4 -4 -4 -4 -4 -4 -4 -4 -5 -4 -4 -4 -4 -4 -3 -2
1 0 -1 -1 -1 -1 -2 -2 -2 -1 -1 -2 -2 -2 -1 -1 -2 -2 -1 -1 -2 -3 -3 -3 -3 -3 -3 -3 -4 -3 -3 -3 -3 -4 -4 -5 -5 -5 -5 -5 -5 -5 -5 -4 -4 -5 -5 -4 -3
2 1 1 0 -0 -1 -2 -2 -2 -1 -1 -1 -2 -1 -1 -1 -2 -2 -2 -2 -2 -3 -2 -2 -2 -3 -3 -3 -4 -3 -3 -3 -3 -4 -4 -5 -5 -5 -5 -5 -5 -5 -5 -5 -5 -5 -5 -5 -4
2 2 1 1 -0 -1 -2 -2 -2 -1 -1 -1 -1 -0 -0 -1 -2 -2 -2 -2 -3 -3 -2 -2 -2 -3 -3 -4 -4 -3 -3 -3 -3 -3 -4 -4 -4 -4 -4 -5 -5 -5 -5 -5 -5 -5 -5 -5 -5
2 2 1 0 -1 -1 -1 -1 -1 -1 -1 -1 0 0 -0 -1 -2 -2 -2 -2 -3 -3 -2 -2 -2 -3 -3 -4 -4 -4 -3 -3 -3 -3 -3 -3 -4 -4 -4 -5 -5 -5 -5 -5 -4 -4 -4 -4 -4
2 2 1 -0 -1 -1 -1 -1 -1 -1 -1 -1 -1 -1 -1 -1 -2 -2 -2 -2 -2 -2 -2 -2 -2 -3 -3 -4 -4 -4 -4 -4 -3 -3 -3 -3 -3 -4 -4 -5 -5 -5 -5 -4 -4 -4 -4 -4 -4
1 1 0 -0 -1 -1 -1 -1 -1 -1 -1 -2 -2 -2 -2 -2 -2 -2 -2 -2 -3 -2 -2 -2 -2 -2 -3 -4 -4 -4 -4 -4 -4 -4 -4 -3 -3 -4 -4 -4 -4 -5 -5 -4 -4 -4 -4 -4 -4
0 0 -0 -0 -1 -1 -1 -1 -1 -1 -1 -2 -3 -3 -2 -2 -2 -2 -2 -3 -3 -3 -3 -3 -3 -3 -4 -5 -5 -4 -4 -4 -4 -4 -4 -4 -4 -3 -3 -3 -4 -4 -4 -4 -4 -4 -4 -4 -4
-0 -0 -0 -0 -1 -1 -1 -1 -1 -1 -1 -2 -3 -2 -2 -2 -2 -2 -2 -3 -3 -3 -3 -3 -4 -4 -4 -5 -5 -4 -4 -4 -4 -4 -4 -4 -4 -3 -3 -3 -3 -3 -4 -4 -4 -4 -4 -4 -4